EN

Hourly Weather Bolshoe Kondaurovo

Today, 26 October, Monday

Time Temperature Precipitation Wind Pressure Humidity
00:00 +7°C° 0 mm 2 mps 743 mmHg 86%
01:00 +8°C° 0 mm 1 mps 744 mmHg 85%
02:00 +8°C° 0 mm 1 mps 744 mmHg 85%
03:00 +8°C° 0 mm 1 mps 744 mmHg 85%
04:00 +8°C° 0 mm 1 mps 744 mmHg 85%
05:00 +9°C° 0 mm 1 mps 745 mmHg 84%
06:00 +9°C° 0 mm 1 mps 745 mmHg 83%
07:00 +9°C° 0 mm 1 mps 745 mmHg 81%
08:00 +10°C° 0 mm 1 mps 745 mmHg 79%
09:00 +10°C° 0 mm 1 mps 745 mmHg 73%
10:00 +11°C° 0 mm 1 mps 746 mmHg 67%
11:00 +12°C° 0 mm 1 mps 746 mmHg 61%
12:00 +12°C° 0 mm 1 mps 746 mmHg 60%
13:00 +12°C° 0 mm 1 mps 746 mmHg 59%
14:00 +12°C° 0 mm 0 mps 746 mmHg 58%
15:00 +12°C° 0 mm 1 mps 746 mmHg 63%
16:00 +10°C° 0 mm 1 mps 746 mmHg 68%
17:00 +9°C° 0 mm 1 mps 746 mmHg 73%
18:00 +9°C° 0 mm 1 mps 746 mmHg 75%
19:00 +9°C° 0 mm 1 mps 746 mmHg 77%
20:00 +8°C° 0 mm 2 mps 747 mmHg 79%
21:00 +7°C° 0 mm 2 mps 747 mmHg 81%
22:00 +7°C° 0 mm 2 mps 747 mmHg 82%
23:00 +7°C° 0 mm 2 mps 747 mmHg 83%

Tomorrow, 27 October, Tuesday

Time Temperature Precipitation Wind Pressure Humidity
00:00 +7°C° 0 mm 2 mps 747 mmHg 85%
01:00 +6°C° 0 mm 2 mps 747 mmHg 86%
02:00 +5°C° 0 mm 3 mps 747 mmHg 87%
03:00 +5°C° 0 mm 3 mps 747 mmHg 89%
04:00 +5°C° 0 mm 3 mps 747 mmHg 90%
05:00 +4°C° 0 mm 3 mps 748 mmHg 91%
06:00 +5°C° 0 mm 3 mps 748 mmHg 90%
07:00 +5°C° 0 mm 3 mps 748 mmHg 88%
08:00 +5°C° 0 mm 3 mps 748 mmHg 87%
09:00 +8°C° 0 mm 3 mps 748 mmHg 82%
10:00 +8°C° 0 mm 4 mps 748 mmHg 77%
11:00 +10°C° 0 mm 4 mps 748 mmHg 72%
12:00 +10°C° 0 mm 4 mps 748 mmHg 71%
13:00 +10°C° 0 mm 4 mps 748 mmHg 70%
14:00 +11°C° 0 mm 4 mps 748 mmHg 68%
15:00 +10°C° 0 mm 4 mps 748 mmHg 73%
16:00 +9°C° 0 mm 3 mps 748 mmHg 79%
17:00 +7°C° 0 mm 3 mps 748 mmHg 84%
18:00 +7°C° 0 mm 3 mps 748 mmHg 84%
19:00 +7°C° 0 mm 3 mps 748 mmHg 85%
20:00 +6°C° 0 mm 4 mps 748 mmHg 86%
21:00 +5°C° 0 mm 4 mps 748 mmHg 86%
22:00 +5°C° 0 mm 4 mps 748 mmHg 86%
23:00 +5°C° 0 mm 4 mps 748 mmHg 86%

Day after tomorrow, 28 October, Wednesday

Time Temperature Precipitation Wind Pressure Humidity
00:00 +5°C° 0 mm 4 mps 748 mmHg 86%
01:00 +4°C° 0 mm 4 mps 748 mmHg 86%
02:00 +4°C° 0 mm 4 mps 748 mmHg 86%
03:00 +4°C° 0 mm 4 mps 748 mmHg 85%
04:00 +4°C° 0 mm 4 mps 748 mmHg 85%
05:00 +4°C° 0 mm 4 mps 748 mmHg 85%
06:00 +4°C° 0 mm 4 mps 748 mmHg 83%
07:00 +3°C° 0 mm 5 mps 748 mmHg 81%
08:00 +5°C° 0 mm 5 mps 748 mmHg 79%
09:00 +6°C° 0 mm 5 mps 748 mmHg 74%
10:00 +7°C° 0 mm 5 mps 749 mmHg 69%
11:00 +8°C° 0 mm 5 mps 749 mmHg 64%
12:00 +9°C° 0 mm 5 mps 748 mmHg 63%
13:00 +9°C° 0 mm 5 mps 748 mmHg 62%
14:00 +9°C° 0 mm 5 mps 748 mmHg 61%
15:00 +8°C° 0 mm 4 mps 748 mmHg 64%
16:00 +7°C° 0 mm 4 mps 748 mmHg 68%
17:00 +6°C° 0 mm 4 mps 748 mmHg 72%
18:00 +5°C° 0 mm 4 mps 748 mmHg 71%
19:00 +5°C° 0 mm 4 mps 748 mmHg 71%
20:00 +4°C° 0 mm 4 mps 748 mmHg 71%
21:00 +4°C° 0 mm 4 mps 748 mmHg 68%
22:00 +4°C° 0 mm 4 mps 748 mmHg 65%
23:00 +3°C° 0 mm 4 mps 748 mmHg 63%

29 October, Thursday

Time Temperature Precipitation Wind Pressure Humidity
00:00 +3°C° 0 mm 4 mps 748 mmHg 60%
01:00 +1°C° 0 mm 4 mps 748 mmHg 58%
02:00 +2°C° 0 mm 3 mps 748 mmHg 56%
03:00 +1°C° 0 mm 3 mps 748 mmHg 56%
04:00 +1°C° 0 mm 3 mps 748 mmHg 57%
05:00 0°C° 0 mm 4 mps 747 mmHg 57%
06:00 0°C° 0 mm 4 mps 747 mmHg 57%
07:00 0°C° 0 mm 4 mps 747 mmHg 57%
08:00 +1°C° 0 mm 4 mps 747 mmHg 58%
09:00 +3°C° 0 mm 4 mps 747 mmHg 57%
10:00 +4°C° 0 mm 4 mps 747 mmHg 55%
11:00 +5°C° 0 mm 4 mps 747 mmHg 54%
12:00 +5°C° 0 mm 4 mps 747 mmHg 55%
13:00 +6°C° 0 mm 4 mps 746 mmHg 55%
14:00 +6°C° 0 mm 4 mps 746 mmHg 56%
15:00 +6°C° 0 mm 4 mps 746 mmHg 59%
16:00 +5°C° 0 mm 4 mps 746 mmHg 62%
17:00 +4°C° 0 mm 3 mps 746 mmHg 65%
18:00 +4°C° 0 mm 3 mps 746 mmHg 66%
19:00 +4°C° 0 mm 3 mps 745 mmHg 66%
20:00 +4°C° 0 mm 3 mps 745 mmHg 66%
21:00 +3°C° 0 mm 3 mps 745 mmHg 68%
22:00 +3°C° 0 mm 3 mps 745 mmHg 69%
23:00 +4°C° 0 mm 2 mps 745 mmHg 71%

30 October, Friday

Time Temperature Precipitation Wind Pressure Humidity
00:00 +4°C° 0 mm 2 mps 745 mmHg 70%
01:00 +4°C° 0 mm 2 mps 745 mmHg 70%
02:00 +4°C° 0 mm 2 mps 744 mmHg 69%
03:00 +4°C° 0 mm 2 mps 744 mmHg 72%
04:00 +3°C° 0 mm 2 mps 744 mmHg 74%
05:00 +3°C° 0 mm 2 mps 744 mmHg 77%
06:00 +3°C° 0 mm 2 mps 744 mmHg 78%
07:00 +3°C° 0 mm 2 mps 744 mmHg 79%
08:00 +4°C° 0 mm 2 mps 744 mmHg 79%
09:00 +5°C° 0 mm 2 mps 744 mmHg 76%
10:00 +6°C° 0 mm 2 mps 744 mmHg 72%
11:00 +8°C° 0 mm 2 mps 744 mmHg 69%
12:00 +8°C° 0 mm 2 mps 744 mmHg 68%
13:00 +8°C° 0 mm 2 mps 744 mmHg 67%
14:00 +10°C° 0 mm 1 mps 744 mmHg 67%
15:00 +9°C° 0 mm 1 mps 744 mmHg 71%
16:00 +8°C° 0 mm 1 mps 744 mmHg 76%
17:00 +7°C° 0 mm 1 mps 744 mmHg 81%
18:00 +6°C° 0 mm 1 mps 744 mmHg 82%
19:00 +6°C° 0 mm 1 mps 744 mmHg 84%
20:00 +6°C° 0 mm 1 mps 744 mmHg 86%
21:00 +5°C° 0 mm 1 mps 744 mmHg 87%
22:00 +5°C° 0 mm 1 mps 744 mmHg 87%
23:00 +5°C° 0 mm 1 mps 744 mmHg 88%

31 October, Saturday

Time Temperature Precipitation Wind Pressure Humidity
00:00 +5°C° 0 mm 1 mps 744 mmHg 89%
01:00 +4°C° 0 mm 2 mps 744 mmHg 90%
02:00 +3°C° 0 mm 2 mps 744 mmHg 91%
03:00 +3°C° 0 mm 2 mps 744 mmHg 92%
04:00 +3°C° 0 mm 2 mps 744 mmHg 94%
05:00 +3°C° 0 mm 2 mps 744 mmHg 95%
06:00 +4°C° 0 mm 2 mps 744 mmHg 95%
07:00 +4°C° 0 mm 2 mps 744 mmHg 95%
08:00 +4°C° 0 mm 3 mps 744 mmHg 95%
Show more